[[{"header":{"parameterUnit":"m.s-1","parameterCategory":1,"la1":30.2991,"la2":30.254,"lo1":-89.0895,"lo2":-89.0444,"dy":0.0017,"dx":0.0017,"nx":28,"ny":28,"refTime":"2024-05-08T03:00:00:Z","depth":0,"parameterNumber":2,"parameterNumberName":"U-component_of_WINDS"},"data":[0,0,0,0,0,0,0,0,0,0,0,0,0,0,0,0,0,0,0,0,0,0,0,0,0,0,0,0,0,0,0,0,0,0,0,0,0,0,0,0,0,0,0,0,0,0,0,0,0,0,0,0,0,0,0,0,0,0,-1.0167,-1.0168,0,-1.0224,-1.0225,-1.0225,-1.0267,-1.0268,-1.0268,-1.0268,-1.0326,-1.0327,-1.0329,0,0,0,0,0,0,0,0,0,0,0,0,0,-1.0096,-1.0097,-1.0167,-1.0168,-1.0169,-1.0224,-1.0225,-1.0225,-1.0267,-1.0268,-1.0268,-1.0269,-1.0326,-1.0327,-1.0329,0,0,0,0,0,0,0,0,0,0,0,0,0,-1.0137,-1.0097,-1.0167,-1.0196,-1.0199,-1.0224,-1.0225,-1.0226,-1.0267,-1.0268,-1.0268,-1.0269,-1.0325,-1.0327,-1.0329,-1.0329,0,0,-1.0334,-1.0335,0,0,0,0,0,0,0,0,-1.0135,-1.014,-1.0191,-1.0194,-1.0198,-1.0239,-1.0221,-1.026,-1.0267,-1.0241,-1.0268,-1.0269,-1.0297,-1.0301,-1.031,-1.0332,-1.0334,-1.0334,-1.0336,-1.0336,-1.0337,0,0,0,0,0,0,0,-1.0132,-1.0137,-1.019,-1.0192,-1.0196,-1.0207,-1.0213,-1.0228,-1.0265,-1.0244,-1.0247,-1.0253,-1.0299,-1.0309,-1.0312,-1.0335,-1.0334,-1.0336,-1.0337,-1.0338,-1.0359,-1.0359,0,0,0,0,0,0,-1.0124,-1.0135,-1.0188,-1.0191,-1.0167,-1.0207,-1.0215,-1.0225,-1.0265,-1.0272,-1.0252,-1.0255,-1.0305,-1.031,-1.0314,-1.0317,-1.0336,-1.0338,-1.0339,-1.036,-1.0359,-1.0359,0,0,0,0,0,0,-1.0123,-1.0129,-1.0186,-1.0164,-1.0172,-1.0208,-1.022,-1.0226,-1.0236,-1.0272,-1.0279,-1.0256,-1.0306,-1.0312,-1.0325,-1.032,-1.0339,-1.034,-1.036,-1.036,-1.0359,-1.0322,0,0,0,0,0,0,-1.012,-1.0128,-1.0128,-1.0164,-1.0173,-1.0195,-1.0219,-1.0227,-1.0239,-1.0243,-1.0277,-1.0283,-1.0307,-1.0322,-1.0327,-1.0322,-1.0342,-1.0361,-1.036,-1.0359,-1.0324,-1.032,-1.0317,0,0,0,0,0,-1.0118,-1.0115,-1.0128,-1.0134,-1.0174,-1.0195,-1.02,-1.0228,-1.0238,-1.0239,-1.0262,-1.0282,-1.0319,-1.0323,-1.0329,-1.0325,-1.0362,-1.036,-1.0359,-1.0326,-1.0321,-1.0317,0,0,0,0,0,0,-1.0078,-1.012,-1.0135,-1.0144,-1.0165,-1.0202,-1.0204,-1.0222,-1.0241,-1.0243,-1.0277,-1.0284,-1.0294,-1.0311,-1.0314,-1.0327,-1.0343,-1.0343,-1.0316,-1.0312,-1.0308,-1.0304,-1.0343,0,0,0,0,0,-1.007,-1.0083,-1.012,-1.0125,-1.0135,-1.0167,-1.0177,-1.0197,-1.022,-1.023,-1.0254,-1.0276,-1.0293,-1.0303,-1.0321,-1.0327,-1.0335,-1.0327,-1.0324,-1.0321,-1.032,-1.0325,-1.0322,-1.0355,-1.0355,-1.0355,0,0,-1.0055,-1.0079,-1.0086,-1.0117,-1.0136,-1.0149,-1.0175,-1.0187,-1.0197,-1.0232,-1.0246,-1.0264,-1.0291,-1.0301,-1.0306,-1.0315,-1.0313,-1.0319,-1.0316,-1.0318,-1.0323,-1.032,-1.0317,-1.0354,-1.0354,-1.0354,0,0,-1.0033,-1.0053,-1.0059,-1.0077,-1.0106,-1.0127,-1.0129,-1.0163,-1.0176,-1.0191,-1.0217,-1.023,-1.0258,-1.0276,-1.0289,-1.0274,-1.0293,-1.0279,-1.0261,-1.0265,-1.0263,-1.026,-1.0255,-1.0253,-1.0279,-1.0279,-1.0279,0,-1.0009,-1.003,-1.006,-1.0071,-1.0084,-1.0116,-1.0122,-1.0139,-1.0172,-1.018,-1.019,-1.0226,-1.0247,-1.0261,-1.0258,-1.0267,-1.027,-1.0275,-1.0261,-1.0259,-1.0257,-1.0252,-1.025,-1.0277,-1.0277,-1.0277,-1.0277,0,-1.0,-1.0014,-1.0016,-1.0046,-1.006,-1.0069,-1.01,-1.011,-1.0128,-1.0149,-1.0163,-1.0189,-1.0213,-1.0218,-1.0235,-1.0235,-1.0239,-1.0254,-1.0271,-1.0251,-1.0248,-1.0246,-1.0274,-1.0275,-1.0275,-1.0276,0,0,-0.9955,-1.0002,-1.0002,-1.0016,-1.005,-1.0062,-1.0072,-1.0095,-1.0103,-1.0125,-1.0134,-1.0158,-1.0172,-1.0186,-1.0207,-1.021,-1.0197,-1.0225,-1.0226,-1.0219,-1.0198,-1.0187,-1.0184,-1.021,-1.021,-1.021,-1.0196,0,-0.9938,-0.9958,-0.9985,-0.9996,-1.0009,-1.004,-1.0049,-1.0071,-1.0091,-1.0105,-1.0127,-1.0143,-1.016,-1.0169,-1.0175,-1.0198,-1.0194,-1.0199,-1.0219,-1.022,-1.0211,-1.0182,-1.017,-1.0156,-1.0195,-1.0194,-1.0194,0,-0.9921,-0.9941,-0.9953,-0.9986,-0.9993,-1.0,-1.0024,-1.0037,-1.0063,-1.0077,-1.0093,-1.0115,-1.0128,-1.0143,-1.0161,-1.0164,-1.0174,-1.0187,-1.0187,-1.019,-1.0206,-1.0184,-1.0152,-1.015,-1.0192,-1.0192,-1.0193,0,-0.9886,-0.9916,-0.9928,-0.9939,-0.9978,-0.9982,-0.9999,-1.0025,-1.0037,-1.0058,-1.0066,-1.0087,-1.0099,-1.0115,-1.0143,-1.0151,-1.0158,-1.0175,-1.017,-1.0169,-1.017,-1.0169,-1.0138,-1.0176,-1.0176,-1.0176,-1.0176,0,-0.9865,-0.9871,-0.9912,-0.9919,-0.9928,-0.9959,-0.9966,-0.9985,-1.0008,-1.002,-1.0047,-1.0057,-1.0093,-1.0107,-1.0129,-1.0141,-1.0146,-1.0158,-1.0163,-1.0155,-1.0153,-1.0162,-1.0163,-1.0176,-1.0176,-1.0176,-1.0176,0,-0.9827,-0.9855,-0.987,-0.9905,-0.9914,-0.9919,-0.9949,-0.9957,-0.9979,-0.9993,-0.9998,-1.0031,-1.005,-1.0079,-1.0106,-1.012,-1.0128,-1.0138,-1.0119,-1.0123,-1.0116,-1.0116,-1.0089,-1.0087,-1.0126,-1.0126,-1.0125,0,-0.9811,-0.9817,-0.9853,-0.9863,-0.9878,-0.9893,-0.9906,-0.9937,-0.9949,-0.9978,-0.9983,-1.0003,-1.0021,-1.0049,-1.0076,-1.0097,-1.0107,-1.0096,-1.011,-1.0102,-1.0107,-1.0106,-1.0107,-1.0093,-1.0092,-1.0092,-1.0091,0,-0.978,-0.9794,-0.9811,-0.9833,-0.9847,-0.9866,-0.9886,-0.9892,-0.9928,-0.994,-0.9959,-0.9973,-1.0001,-1.0021,-1.0045,-1.0062,-1.0083,-1.0087,-1.0087,-1.0078,-1.0068,-1.0073,-1.011,-1.0087,-1.0088,-1.0088,-1.0088,-1.0088,-0.9754,-0.976,-0.9786,-0.9804,-0.9823,-0.9841,-0.985,-0.9873,-0.9889,-0.9914,-0.9932,-0.995,-0.9975,-1.0011,-1.0027,-1.0041,-1.005,-1.005,-1.005,-1.0049,-1.0046,-1.0065,-1.0046,-1.0046,-1.0046,-1.0046,-1.0046,0,-0.9724,-0.9743,-0.9759,-0.9786,-0.98,-0.9818,-0.9842,-0.9852,-0.9868,-0.989,-0.9907,-0.9929,-0.9949,-0.9978,-0.9999,-1.0006,-1.0016,-1.001,-1.001,-1.0014,-1.0037,-1.0035,-1.0002,-1.0002,-1.0002,-1.0002,-1.0002,-1.0002,-0.9711,-0.9722,-0.9739,-0.9761,-0.9779,-0.9797,-0.9809,-0.9826,-0.9844,-0.9867,-0.9883,-0.9902,-0.9927,-0.9951,-0.997,-0.9978,-0.9984,-0.9976,-0.9987,-1.0008,-1.0012,-1.0016,-1.0014,-0.9977,-0.9977,-0.9963,-0.9962,-0.9962]},{"header":{"parameterUnit":"m.s-1","parameterCategory":1,"la1":30.2991,"la2":30.254,"lo1":-89.0895,"lo2":-89.0444,"dy":0.0017,"dx":0.0017,"nx":28,"ny":28,"refTime":"2024-05-08T03:00:00:Z","depth":0,"parameterNumber":3,"parameterNumberName":"V-component_of_WINDS"},"data":[0,0,0,0,0,0,0,0,0,0,0,0,0,0,0,0,0,0,0,0,0,0,0,0,0,0,0,0,0,0,0,0,0,0,0,0,0,0,0,0,0,0,0,0,0,0,0,0,0,0,0,0,0,0,0,0,0,0,7.5472,7.5473,0,7.5545,7.5546,7.5546,7.5492,7.5489,7.5487,7.5485,7.5552,7.5556,7.556,0,0,0,0,0,0,0,0,0,0,0,0,0,7.5278,7.5282,7.5472,7.5473,7.5474,7.5545,7.5546,7.5547,7.5492,7.5489,7.5486,7.5484,7.5551,7.5555,7.556,0,0,0,0,0,0,0,0,0,0,0,0,0,7.5358,7.5283,7.5472,7.5455,7.5455,7.5544,7.5546,7.5547,7.5493,7.5489,7.5486,7.5482,7.5549,7.5555,7.5561,7.5669,0,0,7.5579,7.5582,0,0,0,0,0,0,0,0,7.5353,7.5365,7.5457,7.5457,7.5456,7.5506,7.5502,7.5587,7.5494,7.5478,7.5485,7.548,7.5539,7.5546,7.5567,7.5672,7.5675,7.558,7.5583,7.5586,7.5588,0,0,0,0,0,0,0,7.5348,7.5361,7.55,7.5458,7.5458,7.5442,7.5449,7.5518,7.5527,7.5479,7.5475,7.5485,7.5538,7.5561,7.5568,7.5676,7.558,7.5585,7.5589,7.5591,7.5872,7.5875,0,0,0,0,0,0,7.5345,7.5357,7.5498,7.5503,7.5395,7.5448,7.5456,7.5493,7.5526,7.5528,7.5488,7.5482,7.5553,7.5561,7.557,7.5698,7.5586,7.5592,7.5595,7.5868,7.5872,7.5877,0,0,0,0,0,0,7.5341,7.5358,7.5495,7.5429,7.5445,7.5455,7.5497,7.5496,7.552,7.5533,7.5534,7.551,7.555,7.5562,7.5645,7.5699,7.5594,7.56,7.5863,7.5869,7.5875,7.5955,0,0,0,0,0,0,7.5336,7.5357,7.54,7.543,7.5449,7.5571,7.55,7.55,7.5531,7.5524,7.5554,7.5556,7.5548,7.5636,7.5651,7.5706,7.5604,7.5858,7.5866,7.5873,7.5947,7.5962,7.5975,0,0,0,0,0,7.5329,7.5418,7.5402,7.542,7.5503,7.5574,7.5585,7.5576,7.5536,7.5577,7.5586,7.5555,7.5691,7.5645,7.5661,7.5719,7.5855,7.5864,7.5872,7.5941,7.5959,7.5975,0,0,0,0,0,0,7.5391,7.5422,7.5405,7.5507,7.5539,7.5565,7.5618,7.5596,7.5639,7.563,7.5615,7.5623,7.571,7.5723,7.5671,7.5824,7.5766,7.5779,7.5813,7.5831,7.5845,7.5839,7.5609,0,0,0,0,0,7.5417,7.5475,7.5497,7.5585,7.5602,7.5608,7.5638,7.5629,7.5661,7.5673,7.5688,7.5717,7.5767,7.5799,7.5846,7.5949,7.5954,7.5996,7.601,7.6022,7.6032,7.6086,7.6105,7.5905,7.5905,7.5905,0,0,7.547,7.5494,7.5531,7.5598,7.5622,7.568,7.5619,7.5683,7.5725,7.5682,7.5762,7.5774,7.5806,7.5899,7.5941,7.5912,7.6089,7.6033,7.6042,7.6046,7.6097,7.6116,7.6133,7.5911,7.591,7.5909,0,0,7.5597,7.5622,7.5697,7.5723,7.576,7.5763,7.5782,7.5812,7.5819,7.5899,7.5868,7.5916,7.6002,7.6026,7.605,7.6186,7.6158,7.6201,7.6275,7.6328,7.6344,7.6357,7.6405,7.6422,7.6212,7.6212,7.6212,0,7.5657,7.5746,7.5738,7.5805,7.5834,7.5801,7.5876,7.59,7.595,7.597,7.5938,7.6045,7.6064,7.6162,7.6195,7.6216,7.6234,7.6197,7.6342,7.6356,7.6369,7.6414,7.6432,7.6217,7.6216,7.6216,7.6215,0,7.5818,7.588,7.5936,7.5988,7.6023,7.6094,7.6094,7.6131,7.6119,7.6125,7.6206,7.6228,7.6278,7.6301,7.6289,7.6397,7.6378,7.6345,7.6286,7.6393,7.6435,7.6452,7.6224,7.6222,7.6221,7.6219,0,0,7.5985,7.6032,7.6053,7.6076,7.6115,7.6161,7.6229,7.628,7.6311,7.6347,7.6402,7.6476,7.6445,7.6472,7.6462,7.6509,7.6614,7.6469,7.6469,7.6494,7.6733,7.6757,7.6778,7.6596,7.6599,7.6602,7.673,0,7.6113,7.6234,7.6229,7.6342,7.6397,7.6366,7.6425,7.6454,7.6461,7.6508,7.6514,7.6567,7.6523,7.6538,7.6583,7.6591,7.6661,7.6582,7.6645,7.6647,7.6637,7.68,7.6826,7.6945,7.6746,7.6749,7.6751,0,7.6278,7.6322,7.6441,7.6471,7.6494,7.6548,7.6594,7.664,7.6671,7.6673,7.6703,7.6686,7.6752,7.6693,7.6783,7.6729,7.6755,7.6762,7.6767,7.6771,7.6705,7.6807,7.6983,7.7001,7.6777,7.6775,7.6773,0,7.6387,7.6475,7.6557,7.6578,7.6616,7.6654,7.6671,7.6699,7.673,7.677,7.6789,7.6835,7.686,7.6895,7.689,7.6847,7.6981,7.6922,7.6982,7.6983,7.7011,7.7009,7.7192,7.703,7.7029,7.7029,7.7028,0,7.6529,7.6603,7.6606,7.6657,7.6738,7.673,7.681,7.6822,7.6848,7.6898,7.6873,7.6921,7.6911,7.6958,7.6954,7.7029,7.704,7.7042,7.7039,7.7043,7.7043,7.7059,7.705,7.7034,7.7033,7.7032,7.7031,0,7.6664,7.667,7.6757,7.6787,7.6796,7.6854,7.6878,7.6924,7.693,7.6994,7.7008,7.7016,7.707,7.7068,7.7128,7.7126,7.7217,7.7206,7.7207,7.7204,7.7265,7.7259,7.7464,7.749,7.7311,7.7313,7.7314,0,7.6754,7.681,7.6847,7.688,7.6901,7.6954,7.6986,7.6981,7.7014,7.7055,7.7096,7.7148,7.7189,7.7276,7.7285,7.7331,7.732,7.7388,7.7326,7.7328,7.7319,7.7316,7.732,7.74,7.7402,7.7404,7.7405,0,7.6914,7.6914,7.6962,7.7012,7.7052,7.709,7.7125,7.7153,7.7151,7.719,7.7246,7.7278,7.734,7.7391,7.7435,7.745,7.7427,7.7425,7.7441,7.7445,7.7443,7.7444,7.7239,7.742,7.7418,7.7417,7.7416,7.7416,7.7028,7.7076,7.711,7.7164,7.7191,7.7224,7.7269,7.7281,7.7329,7.7381,7.7374,7.7436,7.7464,7.7521,7.754,7.7587,7.7562,7.7586,7.7592,7.7598,7.7604,7.7437,7.7595,7.7595,7.7594,7.7594,7.7594,0,7.7185,7.7205,7.7256,7.7307,7.735,7.7327,7.7364,7.74,7.7456,7.7486,7.7528,7.7591,7.7641,7.7655,7.7702,7.7736,7.7727,7.7749,7.7746,7.7749,7.7624,7.7605,7.7756,7.7756,7.7756,7.7756,7.7756,7.7756,7.7272,7.7352,7.7357,7.7449,7.7468,7.753,7.7554,7.7583,7.7607,7.768,7.7722,7.7732,7.7755,7.7803,7.7847,7.7849,7.7867,7.7894,7.7892,7.7774,7.7758,7.7742,7.7724,7.7898,7.7898,7.8012,7.8014,7.8014]}]]